Shawnee Mission, KS

2:21 AM CDT on July 26, 2016 (GMT -0500)
Johnson County Executive

Weather History for KOJC - January, 2014

Change the Weather History Date:

Friday, January 10, 2014

  Actual Average Record
Temperature  
Mean Temperature 36 °F 30 °F  
Max Temperature 41 °F 39 °F 66 °F (1990)
Min Temperature 31 °F 21 °F -16 °F (1982)
Degree Days  
Heating Degree Days 29 35  
Month to date heating degree days 465 350  
Since 1 July heating degree days 2630 2315  
Cooling Degree Days 0 0  
Month to date cooling degree days 0 0  
Year to date cooling degree days 0 0  
Moisture  
Dew Point 35 °F    
Average Humidity 96    
Maximum Humidity 100    
Minimum Humidity 92    
Precipitation  
Precipitation 0.02 in 0.03 in 0.55 in (2008)
Month to date precipitation 0.02 0.29  
Year to date precipitation 0.02 0.29  
Sea Level Pressure  
Sea Level Pressure 29.70 in    
Wind  
Wind Speed 7 mph (SSW)    
Max Wind Speed 14 mph    
Max Gust Speed 21 mph    
Visibility 2 miles    
Events Fog , Rain    
T = Trace of Precipitation, MM = Missing Value Source: NWS Daily Summary

Daily Weather History Graph

Daily Weather History Graph

Search for Another Location

Airport or City:

Trip Planner

Search our weather history database for the weather conditions in past years. The results will help you decide how hot, cold, wet, or windy it might be!

Date:

Astronomy

Jan. 10, 2014 Rise Set
Actual Time 7:37 AM CST 5:16 PM CST
Civil Twilight 7:07 AM CST 5:45 PM CST
Nautical Twilight 6:34 AM CST 6:18 PM CST
Astronomical Twilight 6:02 AM CST 6:50 PM CST
Moon 1:19 PM CST (1/10) 2:46 AM CST (1/10)
Length of Visible Light 10h 37m
Length of Day
9h 38m
Waxing Gibbous, 75% of the Moon is Illuminated
Jan 10
Waxing Gibbous
Jan 15
Full
Jan 23
Last Quarter
Jan 30
New
Feb 6
First Quarter

Hourly Weather History & Observations

Time (CST) Temp. Windchill Dew Point Humidity Pressure Visibility Wind Dir Wind Speed Gust Speed Precip Events Conditions
12:53 AM 30.9 °F 25.2 °F 30.9 °F 100% 29.99 in 0.2 mi SE 5.8 mph - N/A Fog Light Freezing Fog
1:46 AM 30.9 °F 22.8 °F 30.9 °F 100% 29.94 in 0.8 mi SSE 9.2 mph - N/A   Mist
1:53 AM 30.9 °F 22.8 °F 30.9 °F 100% 29.97 in 1.0 mi SSE 9.2 mph - N/A   Mist
2:15 AM 32.0 °F 25.6 °F 32.0 °F 100% 29.92 in 1.5 mi SSE 6.9 mph - N/A   Overcast
2:53 AM 32.0 °F 25.6 °F 32.0 °F 100% 29.94 in 1.8 mi SSE 6.9 mph - N/A   Overcast
3:22 AM 32.0 °F 24.2 °F 32.0 °F 100% 29.88 in 1.2 mi SSE 9.2 mph - N/A   Overcast
3:53 AM 32.0 °F 24.2 °F 32.0 °F 100% 29.89 in 1.5 mi SSE 9.2 mph - N/A   Overcast
4:04 AM 32.0 °F 24.2 °F 32.0 °F 100% 29.86 in 2.0 mi SSE 9.2 mph - N/A   Overcast
4:11 AM 32.0 °F 24.2 °F 32.0 °F 100% 29.86 in 1.5 mi SSE 9.2 mph - N/A   Overcast
4:22 AM 32.0 °F 24.2 °F 32.0 °F 100% 29.85 in 1.2 mi SSE 9.2 mph - N/A   Overcast
4:53 AM 33.1 °F 25.5 °F 33.1 °F 100% 29.86 in 1.5 mi SSE 9.2 mph - N/A   Overcast
5:00 AM 33.1 °F 25.5 °F 33.1 °F 100% 29.83 in 1.2 mi SSE 9.2 mph - N/A   Overcast
5:23 AM 32.0 °F 24.8 °F 32.0 °F 100% 29.81 in 0.8 mi SSE 8.1 mph - N/A   Overcast
5:35 AM 32.0 °F 24.2 °F 32.0 °F 100% 29.81 in 0.5 mi SSE 9.2 mph - N/A Fog Fog
5:53 AM 33.1 °F 25.5 °F 33.1 °F 100% 29.83 in 0.5 mi SSE 9.2 mph - N/A Fog Fog
6:53 AM 33.1 °F 26.1 °F 33.1 °F 100% 29.80 in 0.5 mi SE 8.1 mph - N/A Fog Fog
7:53 AM 33.1 °F 25.5 °F 33.1 °F 100% 29.75 in 0.5 mi SE 9.2 mph - N/A Fog Fog
8:27 AM 33.1 °F 25.5 °F 33.1 °F 100% 29.71 in 0.8 mi SE 9.2 mph - N/A   Overcast
8:38 AM 34.0 °F 27.2 °F 34.0 °F 100% 29.71 in 0.5 mi SSE 8.1 mph - N/A Fog Fog
8:53 AM 34.0 °F 26.6 °F 34.0 °F 100% 29.73 in 0.5 mi SSE 9.2 mph - N/A Fog Fog
9:14 AM 34.0 °F 28.0 °F 34.0 °F 100% 29.70 in 0.8 mi SE 6.9 mph - N/A   Overcast
9:39 AM 34.0 °F 28.8 °F 34.0 °F 100% 29.68 in 0.5 mi SE 5.8 mph - N/A Fog Fog
9:53 AM 34.0 °F 29.8 °F 34.0 °F 100% 29.70 in 0.5 mi SE 4.6 mph - N/A Fog Fog
10:53 AM 35.1 °F - 35.1 °F 100% 29.70 in 0.2 mi Calm Calm - 0.01 in Fog Fog
11:53 AM 36.0 °F - 36.0 °F 100% 29.65 in 0.2 mi Calm Calm - 0.01 in Fog , Rain Light Rain
12:53 PM 37.0 °F 34.5 °F 37.0 °F 100% 29.58 in 0.2 mi SSE 3.5 mph - 0.00 in Fog Fog
1:53 PM 39.0 °F 36.8 °F 39.0 °F 100% 29.55 in 0.2 mi South 3.5 mph - N/A Fog Fog
2:53 PM 41.0 °F 35.2 °F 41.0 °F 100% 29.55 in 0.2 mi SW 9.2 mph - N/A Fog Fog
3:53 PM 39.9 °F 36.7 °F 39.9 °F 100% 29.55 in 0.2 mi SW 4.6 mph - N/A Fog Fog
4:32 PM 39.9 °F 35.1 °F 39.9 °F 100% 29.54 in 1.0 mi West 6.9 mph - N/A   Overcast
4:37 PM 39.9 °F 35.8 °F 39.9 °F 100% 29.54 in 2.0 mi West 5.8 mph - N/A   Overcast
4:53 PM 39.9 °F 35.8 °F 39.0 °F 97% 29.56 in 4.0 mi West 5.8 mph - N/A   Overcast
5:53 PM 39.0 °F 33.4 °F 37.9 °F 96% 29.57 in 6.0 mi West 8.1 mph - N/A   Overcast
6:41 PM 37.9 °F 30.9 °F 37.0 °F 97% 29.56 in 6.0 mi WNW 10.4 mph - N/A   Overcast
6:53 PM 37.9 °F 31.5 °F 37.0 °F 97% 29.58 in 6.0 mi WNW 9.2 mph - N/A   Overcast
7:22 PM 37.9 °F 32.1 °F 37.0 °F 97% 29.57 in 4.0 mi West 8.1 mph - N/A   Overcast
7:29 PM 37.9 °F 32.1 °F 37.0 °F 97% 29.58 in 4.0 mi WNW 8.1 mph - N/A   Overcast
7:53 PM 36.0 °F 29.0 °F 35.1 °F 97% 29.61 in 4.0 mi WNW 9.2 mph 19.6 mph N/A   Overcast
8:18 PM 36.0 °F 31.1 °F 35.1 °F 97% 29.59 in 4.0 mi WNW 5.8 mph - N/A   Overcast
8:27 PM 36.0 °F 32.1 °F 35.1 °F 97% 29.59 in 2.5 mi West 4.6 mph - N/A   Overcast
8:34 PM 36.0 °F 30.3 °F 35.1 °F 97% 29.59 in 1.2 mi WNW 6.9 mph - N/A   Overcast
8:51 PM 35.6 °F 29.9 °F 35.6 °F 100% 29.60 in 2.0 mi West 6.9 mph - N/A   Overcast
8:53 PM 35.1 °F 29.3 °F 35.1 °F 100% 29.62 in 2.0 mi West 6.9 mph - N/A   Overcast
9:03 PM 35.1 °F 27.9 °F 35.1 °F 100% 29.60 in 3.0 mi West 9.2 mph - N/A   Overcast
9:30 PM 35.1 °F 27.9 °F 34.0 °F 96% 29.61 in 3.0 mi West 9.2 mph - N/A   Overcast
9:53 PM 35.1 °F 29.3 °F 34.0 °F 96% 29.64 in 3.0 mi West 6.9 mph - N/A   Overcast
10:00 PM 35.1 °F 30.1 °F 34.0 °F 96% 29.62 in 3.0 mi West 5.8 mph - N/A   Overcast
10:19 PM 35.1 °F 29.3 °F 34.0 °F 96% 29.62 in 5.0 mi West 6.9 mph - N/A   Overcast
10:53 PM 34.0 °F 28.8 °F 33.1 °F 96% 29.64 in 6.0 mi West 5.8 mph - N/A   Overcast
11:53 PM 34.0 °F 28.0 °F 33.1 °F 96% 29.66 in 5.0 mi West 6.9 mph - N/A   Overcast